KD4VIF Weather Reports


time (UTC)temp
F
wind
direction
speed
knots
gust
knots
rain 1hr
in
rain 24hr
in
rain mn
in
humidity
%
barometer
mb
20260505181638 77 333 0.0 2.6 0.00 0.00 0.00 100 1015.1
20260505180638 77 345 1.7 4.3 0.00 0.00 0.00 100 1015.0
20260505180138 77 277 0.9 4.3 0.00 0.00 0.00 100 1015.3
20260505175638 78 344 1.7 4.3 0.00 0.00 0.00 100 1015.2
20260505174639 77 254 0.9 4.3 0.00 0.00 0.00 100 1015.2
20260505174137 76 127 0.0 5.2 0.00 0.00 0.00 100 1015.4
20260505173638 76 295 0.0 1.7 0.00 0.00 0.00 100 1015.3
20260505165637 75 267 0.0 7.0 0.00 0.00 0.00 100 1015.7
20260505165138 75 310 0.9 3.5 0.00 0.00 0.00 100 1015.9
20260505164138 75 206 2.6 6.1 0.00 0.00 0.00 100 1015.9
20260505163137 75 219 1.7 4.3 0.00 0.00 0.00 100 1016.0
20260505162638 74 285 1.7 4.3 0.00 0.00 0.00 100 1016.0
20260505160638 74 153 0.0 7.8 0.00 0.00 0.00 100 1016.3
20260505160137 73 127 0.9 3.5 0.00 0.00 0.00 100 1016.4
20260505153138 71 220 0.0 2.6 0.00 0.00 0.00 100 1016.7
20260505152637 71 292 1.7 2.6 0.00 0.00 0.00 100 1016.7
20260505152138 71 181 1.7 5.2 0.00 0.00 0.00 100 1016.7
20260505151638 71 250 0.0 3.5 0.00 0.00 0.00 100 1016.7
20260505150638 70 277 2.6 3.5 0.00 0.00 0.00 100 1016.8
20260505150137 70 208 1.7 4.3 0.00 0.00 0.00 100 1016.7
20260505124137 56 267 0.0 0.0 0.00 0.00 0.00 100 1016.8
20260505123713 55 267 0.0 0.0 0.00 0.00 0.00 100 1016.8
20260505123637 55 267 0.0 0.0 0.00 0.00 0.00 100 1016.8
20260505122637 55 267 0.0 0.0 0.00 0.00 0.00 100 1016.7
20260505122138 55 267 0.0 0.0 0.00 0.00 0.00 100 1016.7
20260505121636 54 267 0.0 0.9 0.00 0.00 0.00 100 1016.6
20260505121142 54 267 0.0 0.9 0.00 0.00 0.00 100 1016.6
20260505120638 53 133 0.0 0.0 0.00 0.00 0.00 100 1016.5
20260505120137 53 133 0.0 0.0 0.00 0.00 0.00 100 1016.6
20260505115714 53 133 0.0 0.0 0.00 0.00 0.00 100 1016.7
20260505115637 53 133 0.0 0.0 0.00 0.00 0.00 100 1016.7
20260505115137 53 133 0.0 0.0 0.00 0.00 0.00 100 1016.7
20260505114638 53 133 0.0 0.0 0.00 0.00 0.00 100 1016.7
20260505114137 52 133 0.0 0.0 0.00 0.00 0.00 100 1016.5
20260505113637 52 133 0.0 0.0 0.00 0.00 0.00 100 1016.5
20260505113137 52 133 0.0 0.0 0.00 0.00 0.00 100 1016.5
20260505112137 52 133 0.0 0.0 0.00 0.00 0.00 100 1016.4
20260505110637 51 133 0.0 0.0 0.00 0.00 0.00 100 1016.3
20260505110138 51 133 0.0 0.0 0.00 0.00 0.00 100 1016.3
20260505102136 52 133 0.0 0.0 0.00 0.00 0.00 100 1015.9
20260505101637 52 133 0.0 0.0 0.00 0.00 0.00 100 1015.9
20260505101140 52 133 0.0 0.0 0.00 0.00 0.00 100 1015.8
20260505100637 52 133 0.0 0.0 0.00 0.00 0.00 100 1015.7
20260505100137 52 133 0.0 0.0 0.00 0.00 0.00 100 1015.7
20260505095637 52 133 0.0 0.0 0.00 0.00 0.00 100 1015.6
20260505095137 52 133 0.0 0.0 0.00 0.00 0.00 100 1015.6
20260505093636 52 133 0.0 0.0 0.00 0.00 0.00 100 1015.4
20260505093137 52 133 0.0 0.0 0.00 0.00 0.00 100 1015.4
20260505092636 52 133 0.0 0.0 0.00 0.00 0.00 100 1015.5
20260505091637 52 133 0.0 0.0 0.00 0.00 0.00 100 1015.4
20260505085637 52 133 0.0 0.0 0.00 0.00 0.00 100 1015.3
20260505085245 53 133 0.0 0.0 0.00 0.00 0.00 100 1015.3
20260505085137 53 133 0.0 0.0 0.00 0.00 0.00 100 1015.3
20260505082636 54 133 0.0 0.0 0.00 0.00 0.00 100 1015.4
20260505082137 53 133 0.0 0.0 0.00 0.00 0.00 100 1015.2
20260505081637 54 133 0.0 0.0 0.00 0.00 0.00 100 1015.2
20260505081143 54 133 0.0 0.0 0.00 0.00 0.00 100 1015.3
20260505080636 54 133 0.0 0.0 0.00 0.00 0.00 100 1015.2
20260505075136 55 133 0.0 0.0 0.00 0.00 0.00 100 1015.1
20260505074637 55 133 0.0 0.0 0.00 0.00 0.00 100 1015.0
20260505074136 55 133 0.0 0.0 0.00 0.00 0.00 100 1015.0
20260505073637 55 133 0.0 0.0 0.00 0.00 0.00 100 1015.1
20260505073136 55 133 0.0 0.0 0.00 0.00 0.00 100 1014.9
20260505072753 56 133 0.0 0.0 0.00 0.00 0.00 100 1015.0
20260505072636 56 133 0.0 0.0 0.00 0.00 0.00 100 1015.0
20260505072137 56 133 0.0 0.0 0.00 0.00 0.00 100 1015.0
20260505071637 56 133 0.0 0.0 0.00 0.00 0.00 100 1015.0
20260505070636 57 133 0.0 0.0 0.00 0.00 0.00 100 1014.8
20260505065637 56 133 0.0 0.0 0.00 0.00 0.00 100 1014.8
20260505065137 57 133 0.0 0.0 0.00 0.00 0.00 100 1014.8
20260505064136 57 133 0.0 0.0 0.00 0.00 0.00 100 1014.9
20260505063637 57 133 0.0 0.0 0.00 0.00 0.00 100 1014.9
20260505063136 57 133 0.0 0.0 0.00 0.00 0.00 100 1015.0
20260505062637 58 133 0.0 0.0 0.00 0.00 0.00 100 1015.0
20260505062136 58 133 0.0 0.0 0.00 0.00 0.00 100 1014.9
20260505061741 58 133 0.0 0.0 0.00 0.00 0.00 100 1015.0
20260505061638 58 133 0.0 0.0 0.00 0.00 0.00 100 1015.0
20260505060636 59 133 0.0 0.0 0.00 0.00 0.00 100 1014.9
20260505060137 59 133 0.0 0.0 0.00 0.00 0.00 100 1015.0
20260505055636 59 133 0.0 0.0 0.00 0.00 0.00 100 1015.0
20260505054719 59 133 0.0 0.9 0.00 0.00 0.00 100 1015.0
20260505054638 59 133 0.0 0.9 0.00 0.00 0.00 100 1015.0
20260505054136 59 133 0.0 0.9 0.00 0.00 0.00 100 1015.1
20260505053636 59 191 0.0 0.0 0.00 0.00 0.00 100 1015.2
20260505052636 60 191 0.0 0.0 0.00 0.00 0.00 100 1015.3
20260505052212 60 191 0.0 0.0 0.00 0.00 0.00 100 1015.3
20260505052137 60 191 0.0 0.0 0.00 0.00 0.00 100 1015.3
20260505050636 60 237 0.0 0.0 0.00 0.00 0.00 100 1015.4
20260505050136 61 237 0.0 0.0 0.00 0.00 0.00 100 1015.4
20260505041637 62 135 0.0 1.7 0.00 0.00 0.00 100 1015.5
20260505040636 63 63 0.0 0.0 0.00 0.00 0.00 100 1015.4
20260505040136 63 63 0.0 1.7 0.00 0.00 0.00 100 1015.3
20260505035637 64 63 0.0 1.7 0.00 0.00 0.00 100 1015.4
20260505034635 64 84 0.0 3.5 0.00 0.00 0.00 100 1015.3
20260505034136 64 84 0.0 3.5 0.00 0.00 0.00 100 1015.3
20260505033636 65 127 0.0 3.5 0.00 0.00 0.00 100 1015.3
20260505033136 65 205 1.7 4.3 0.00 0.00 0.00 100 1015.3
20260505032635 65 191 0.0 2.6 0.00 0.00 0.00 100 1015.4
20260505032209 65 191 0.0 4.3 0.00 0.00 0.00 100 1015.4
20260505032136 65 191 0.0 4.3 0.00 0.00 0.00 100 1015.4
20260505030756 66 240 0.0 3.5 0.00 0.00 0.00 100 1015.4
20260505030636 66 240 0.0 3.5 0.00 0.00 0.00 100 1015.4
20260505030135 66 222 0.9 3.5 0.00 0.00 0.00 100 1015.5
20260505025135 65 247 0.0 1.7 0.00 0.00 0.00 100 1015.4
20260505024637 66 150 0.0 2.6 0.00 0.00 0.00 100 1015.2
20260505024136 66 198 2.6 2.6 0.00 0.00 0.00 100 1015.2
20260505023637 65 168 0.0 1.7 0.00 0.00 0.00 100 1015.2
20260505022635 66 250 0.0 2.6 0.00 0.00 0.00 100 1015.0
20260505022136 67 115 0.0 4.3 0.00 0.00 0.00 100 1015.0
20260505021636 67 151 0.0 4.3 0.00 0.00 0.00 100 1015.0
20260505020136 67 15 0.0 2.6 0.00 0.00 0.00 100 1014.8
20260505015635 66 322 0.9 0.9 0.00 0.00 0.00 100 1014.7
20260505015135 67 123 0.0 3.5 0.00 0.00 0.00 100 1014.8
20260505014637 65 205 0.9 5.2 0.00 0.00 0.00 100 1014.7
20260505014135 65 153 0.0 0.9 0.00 0.00 0.00 100 1014.6
20260505013636 64 187 0.0 2.6 0.00 0.00 0.00 100 1014.5
20260505013135 65 352 0.0 0.0 0.00 0.00 0.00 100 1014.4
20260505012636 65 352 0.0 0.0 0.00 0.00 0.00 100 1014.3
20260505012135 65 352 0.0 0.0 0.00 0.00 0.00 100 1014.3
20260505011636 65 352 0.0 0.0 0.00 0.00 0.00 100 1014.2
20260505010136 66 352 0.0 0.0 0.00 0.00 0.00 100 1014.1
20260505005635 66 352 0.0 0.0 0.00 0.00 0.00 100 1014.0
20260505003635 67 216 0.0 0.0 0.00 0.00 0.00 100 1013.9
20260504193635 77 272 1.7 5.2 0.00 0.00 0.00 100 1013.7
20260504193134 77 258 0.9 3.5 0.00 0.00 0.00 100 1013.8
20260504192635 77 196 0.0 3.5 0.00 0.00 0.00 100 1013.9
20260504192135 77 295 0.9 6.1 0.00 0.00 0.00 100 1013.9
20260504191634 76 4 0.0 4.3 0.00 0.00 0.00 100 1014.0
20260504191138 76 302 1.7 5.2 0.00 0.00 0.00 100 1014.0
20260504185634 76 296 2.6 4.3 0.00 0.00 0.00 100 1014.3
20260504184635 76 244 0.0 1.7 0.00 0.00 0.00 100 1014.4